Вернуться в каталог

STARLINK-32148

АктивенСвязьVLEO
NORAD 60263·PAYLOAD·🇺🇸 United States

Запущен Jul 27, 2024 с Cape Canaveral Space Force Station

Loading…

Ближайшие Пролёты (ближайшие 24 часа)

TLE

СвежийSource: CelesTrak SupGP

Эпоха: Sep 14, 2026, 21:01 UTC

1 60263C 24131J   26257.87618056  .00053912  00000+0  17337-2 0  2570
2 60263  53.1568 252.4397 0001358  93.3922 184.7976 15.31674201    17

Отслеживайте STARLINK-32148 в реальном времени с AllMySat

Download on the App Store